Location: Newark
(13.5236°S, 71.9791°W)
Time: 16:41:49
(UTC+00:00)

OTV 5 (USA 277) - Pass Details

Date: 22 July 2019
Orbit: 305 x 329 km, 54.5° (Epoch: 20 August)

Event Time Altitude Azimuth Distance (km) Brightness Sun altitude
Rises 23:22:52 0° 342° (NNW) 2,060 ? -11.2°
Reaches altitude 10° 23:24:57 10° 353° (N) 1,237 ? -11.6°
Maximum altitude 23:27:25 30° 58° (ENE) 614 ? -12.2°
Enters shadow 23:28:22 24° 96° (E) 739 ? -12.4°
